Date,TemperatureHighF,TemperatureAvgF,TemperatureLowF,DewpointHighF,DewpointAvgF,DewpointLowF,HumidityHigh,HumidityAvg,HumidityLow,PressureMaxIn,PressureMinIn,WindSpeedMaxMPH,WindSpeedAvgMPH,GustSpeedMaxMPH,PrecipitationSumIn
2013-1-1,32,24,12,-100,-100,-100,0,0,100,0.00,40.00,0,-999,0,0.01
2013-1-2,23,13,2,-100,-100,-100,0,0,100,0.00,40.00,0,-999,0,0.00
2013-1-3,19,7,-5,-100,-100,-100,0,0,100,0.00,40.00,0,-999,0,0.00
2013-1-4,35,23,2,-100,-100,-100,0,0,100,0.00,40.00,0,-999,0,0.00
2013-1-5,34,29,15,-100,-100,-100,0,0,100,0.00,40.00,0,-999,0,0.00
2013-1-6,35,25,14,-100,-100,-100,0,0,100,0.00,40.00,0,-999,0,0.00
2013-1-7,32,26,10,-100,-100,-100,0,0,100,0.00,40.00,0,-999,0,0.00
2013-1-8,41,22,6,-100,-100,-100,0,0,100,0.00,40.00,0,-999,0,0.00
2013-1-9,39,27,16,-100,-100,-100,0,0,100,0.00,40.00,0,-999,0,0.00
2013-1-10,42,38,28,-100,-100,-100,0,0,100,0.00,40.00,0,-999,0,0.00
2013-1-11,37,29,20,-100,-100,-100,0,0,100,0.00,40.00,0,-999,0,0.09
2013-1-12,38,35,33,-100,-100,-100,0,0,100,0.00,40.00,0,-999,0,0.18
2013-1-13,40,36,34,-100,-100,-100,0,0,100,0.00,40.00,0,-999,0,0.01
2013-1-14,56,41,34,-100,-100,-100,0,0,100,0.00,40.00,0,-999,0,0.00
2013-1-15,40,32,26,-100,-100,-100,0,0,100,0.00,40.00,0,-999,0,0.00
2013-1-16,30,28,28,-100,-100,-100,0,0,100,0.00,40.00,0,-999,0,0.31
2013-1-17,39,27,18,-100,-100,-100,0,0,100,0.00,40.00,0,-999,0,0.12
2013-1-18,19,13,6,-100,-100,-100,0,0,100,0.00,40.00,0,-999,0,0.01
2013-1-19,35,24,11,-100,-100,-100,0,0,100,0.00,40.00,0,-999,0,0.00
2013-1-20,47,34,23,-100,-100,-100,0,0,100,0.00,40.00,0,-999,0,0.00
2013-1-21,27,21,12,-100,-100,-100,0,0,100,0.00,40.00,0,-999,0,0.00
2013-1-22,23,16,5,-100,-100,-100,0,0,100,0.00,40.00,0,-999,0,0.00
2013-1-23,7,1,-4,-100,-100,-100,0,0,100,0.00,40.00,0,-999,0,0.00
2013-1-24,13,4,-5,-100,-100,-100,0,0,100,0.00,40.00,0,-999,0,0.00
2013-1-25,19,10,2,-100,-100,-100,0,0,100,0.00,40.00,0,-999,0,0.00
2013-1-26,20,13,6,-100,-100,-100,0,0,100,0.00,40.00,0,-999,0,0.00
2013-1-27,24,15,9,-100,-100,-100,0,0,100,0.00,40.00,0,-999,0,17.28
2013-1-28,24,17,9,-100,-100,-100,0,0,100,0.00,40.00,0,-999,0,0.03
2013-1-29,34,25,11,-100,-100,-100,0,0,100,0.00,40.00,0,-999,0,0.28
2013-1-30,35,34,31,-100,-100,-100,0,0,100,0.00,40.00,0,-999,0,0.29
2013-1-31,53,36,29,-100,-100,-100,0,0,100,0.00,40.00,0,-999,0,4.57
2013-2-1,29,23,17,-100,-100,-100,0,0,100,0.00,40.00,0,-999,0,0.02
2013-2-2,24,19,10,-100,-100,-100,0,0,100,0.00,40.00,0,-999,0,0.00
2013-2-3,26,22,14,-100,-100,-100,0,0,100,0.00,40.00,0,-999,0,0.00
2013-2-4,28,22,15,-100,-100,-100,0,0,100,0.00,40.00,0,-999,0,0.00
2013-2-5,27,19,5,-100,-100,-100,0,0,100,0.00,40.00,0,-999,0,0.00
2013-2-6,36,24,17,-100,-100,-100,0,0,100,0.00,40.00,0,-999,0,0.00
2013-2-7,23,17,9,-100,-100,-100,0,0,100,0.00,40.00,0,-999,0,0.00
2013-2-8,20,15,13,-100,-100,-100,0,0,100,0.00,40.00,0,-999,0,0.00
2013-2-9,18,16,13,-100,-100,-100,0,0,100,0.00,40.00,0,-999,0,0.00
2013-2-10,32,17,1,-100,-100,-100,0,0,100,0.00,40.00,0,-999,0,0.02
2013-2-11,28,17,5,-100,-100,-100,0,0,100,0.00,40.00,0,-999,0,0.02
2013-2-12,44,35,27,-100,-100,-100,0,0,100,0.00,40.00,0,-999,0,0.36
2013-2-13,41,31,21,-100,-100,-100,0,0,100,0.00,40.00,0,-999,0,0.01
2013-2-14,39,28,21,-100,-100,-100,0,0,100,0.00,40.00,0,-999,0,0.00
2013-2-15,49,31,18,-100,-100,-100,0,0,100,0.00,40.00,0,-999,0,0.00
2013-2-16,38,32,26,-100,-100,-100,0,0,100,0.00,40.00,0,-999,0,0.00
2013-2-17,25,18,13,-100,-100,-100,0,0,100,0.00,40.00,0,-999,0,0.00
2013-2-18,28,18,10,-100,-100,-100,0,0,100,0.00,40.00,0,-999,0,0.00
2013-2-19,39,29,13,-100,-100,-100,0,0,100,0.00,40.00,0,-999,0,0.08
2013-2-20,33,30,23,-100,-100,-100,0,0,100,0.00,40.00,0,-999,0,0.13
2013-2-21,24,22,17,-100,-100,-100,0,0,100,0.00,40.00,0,-999,0,0.00
2013-2-22,39,30,12,-100,-100,-100,0,0,100,0.00,40.00,0,-999,0,0.00
2013-2-23,34,30,26,-100,-100,-100,0,0,100,0.00,40.00,0,-999,0,0.13
2013-2-24,33,31,29,-100,-100,-100,0,0,100,0.00,40.00,0,-999,0,0.40
2013-2-25,41,33,22,-100,-100,-100,0,0,100,0.00,40.00,0,-999,0,0.57
2013-2-26,39,34,30,-100,-100,-100,0,0,100,0.00,40.00,0,-999,0,0.01
2013-2-27,34,32,31,-100,-100,-100,0,0,100,0.00,40.00,0,-999,0,0.15
2013-2-28,42,35,30,-100,-100,-100,0,0,100,0.00,40.00,0,-999,0,0.32
2013-3-1,38,34,28,-100,-100,-100,0,0,100,0.00,40.00,0,-999,0,0.01
2013-3-2,41,34,25,-100,-100,-100,0,0,100,0.00,40.00,0,-999,0,0.00
2013-3-3,41,32,27,-100,-100,-100,0,0,100,0.00,40.00,0,-999,0,0.03
2013-3-4,35,29,26,-100,-100,-100,0,0,100,0.00,40.00,0,-999,0,0.01
2013-3-5,43,33,24,-100,-100,-100,0,0,100,0.00,40.00,0,-999,0,0.00
2013-3-6,36,34,31,-100,-100,-100,0,0,100,0.00,40.00,0,-999,0,0.01
2013-3-7,33,31,30,-100,-100,-100,0,0,100,0.00,40.00,0,-999,0,0.06
2013-3-8,43,34,25,-100,-100,-100,0,0,100,0.00,40.00,0,-999,0,0.11
2013-3-9,54,35,17,-100,-100,-100,0,0,100,0.00,40.00,0,-999,0,0.01
2013-3-10,47,34,20,-100,-100,-100,0,0,100,0.00,40.00,0,-999,0,0.01
2013-3-11,47,39,30,-100,-100,-100,0,0,100,0.00,40.00,0,-999,0,0.00
2013-3-12,49,42,36,-100,-100,-100,0,0,100,0.00,40.00,0,-999,0,0.50
2013-3-13,47,40,28,-100,-100,-100,0,0,100,0.00,40.00,0,-999,0,0.33
2013-3-14,34,28,18,-100,-100,-100,0,0,100,0.00,40.00,0,-999,0,0.00
2013-3-15,38,26,15,-100,-100,-100,0,0,100,0.00,40.00,0,-999,0,0.00
2013-3-16,32,28,21,-100,-100,-100,0,0,100,0.00,40.00,0,-999,0,0.02
2013-3-17,30,23,12,-100,-100,-100,0,0,100,0.00,40.00,0,-999,0,0.01
2013-3-18,35,24,8,-100,-100,-100,0,0,100,0.00,40.00,0,-999,0,0.00
2013-3-19,31,27,23,-100,-100,-100,0,0,100,0.00,40.00,0,-999,0,0.27
2013-3-20,33,28,23,-100,-100,-100,0,0,100,0.00,40.00,0,-999,0,0.33
2013-3-21,41,28,13,-100,-100,-100,0,0,100,0.00,40.00,0,-999,0,0.01
2013-3-22,38,29,18,-100,-100,-100,0,0,100,0.00,40.00,0,-999,0,0.01
2013-3-23,40,32,24,-100,-100,-100,0,0,100,0.00,40.00,0,-999,0,0.00
2013-3-24,43,36,27,-100,-100,-100,0,0,100,0.00,40.00,0,-999,0,0.00
2013-3-25,40,32,20,-100,-100,-100,0,0,100,0.00,40.00,0,-999,0,0.00
2013-3-26,48,38,29,-100,-100,-100,0,0,100,0.00,40.00,0,-999,0,0.00
2013-3-27,49,38,24,-100,-100,-100,0,0,100,0.00,40.00,0,-999,0,0.00
2013-3-28,45,38,32,-100,-100,-100,0,0,100,0.00,40.00,0,-999,0,0.00
2013-3-29,51,41,32,-100,-100,-100,0,0,100,0.00,40.00,0,-999,0,0.00
2013-3-30,53,39,29,-100,-100,-100,0,0,100,0.00,40.00,0,-999,0,0.00
2013-3-31,54,40,23,-100,-100,-100,0,0,100,0.00,40.00,0,-999,0,0.01
2013-4-1,48,39,32,-100,-100,-100,0,0,100,0.00,40.00,0,-999,0,0.43
2013-4-2,34,30,26,-100,-100,-100,0,0,100,0.00,40.00,0,-999,0,0.01
2013-4-3,42,34,26,-100,-100,-100,0,0,100,0.00,40.00,0,-999,0,0.00
2013-4-4,52,41,30,-100,-100,-100,0,0,100,0.00,40.00,0,-999,0,0.00
2013-4-5,57,42,35,-100,-100,-100,0,0,100,0.00,40.00,0,-999,0,0.00
2013-4-6,42,33,26,-100,-100,-100,0,0,100,0.00,40.00,0,-999,0,0.00
2013-4-7,53,38,24,-100,-100,-100,0,0,100,0.00,40.00,0,-999,0,0.00
2013-4-8,57,46,33,-100,-100,-100,0,0,100,0.00,40.00,0,-999,0,0.00
2013-4-9,57,42,38,-100,-100,-100,0,0,100,0.00,40.00,0,-999,0,0.20
2013-4-10,70,46,39,-100,-100,-100,0,0,100,0.00,40.00,0,-999,0,0.57
2013-4-11,47,42,39,-100,-100,-100,0,0,100,0.00,40.00,0,-999,0,0.35
2013-4-12,39,34,31,-100,-100,-100,0,0,100,0.00,40.00,0,-999,0,0.45
2013-4-13,53,40,33,-100,-100,-100,0,0,100,0.00,40.00,0,-999,0,0.10
2013-4-14,47,41,33,-100,-100,-100,0,0,100,0.00,40.00,0,-999,0,0.28
2013-4-15,64,43,27,-100,-100,-100,0,0,100,0.00,40.00,0,-999,0,0.00
2013-4-16,60,47,32,-100,-100,-100,0,0,100,0.00,40.00,0,-999,0,0.02
2013-4-17,60,53,40,-100,-100,-100,0,0,100,0.00,40.00,0,-999,0,0.01
2013-4-18,58,46,29,-100,-100,-100,0,0,100,0.00,40.00,0,-999,0,0.00
2013-4-19,68,58,48,-100,-100,-100,0,0,100,0.00,40.00,0,-999,0,0.00
2013-4-20,60,49,40,-100,-100,-100,0,0,100,0.00,40.00,0,-999,0,0.76
2013-4-21,50,40,32,-100,-100,-100,0,0,100,0.00,40.00,0,-999,0,0.01
2013-4-22,51,40,28,-100,-100,-100,0,0,100,0.00,40.00,0,-999,0,0.00
2013-4-23,40,37,30,-100,-100,-100,0,0,100,0.00,40.00,0,-999,0,0.00
2013-4-24,71,54,40,-100,-100,-100,0,0,100,0.00,40.00,0,-999,0,0.00
2013-4-25,59,54,50,-100,-100,-100,0,0,100,0.00,40.00,0,-999,0,0.00
2013-7-10,75,72,68,-100,-100,-100,0,0,100,0.00,40.00,0,-999,0,0.37
2013-7-11,81,74,70,-100,-100,-100,0,0,100,0.00,40.00,0,-999,0,0.13
2013-7-12,82,70,60,-100,-100,-100,0,0,100,0.00,40.00,0,-999,0,0.01
2013-7-13,82,71,58,-100,-100,-100,0,0,100,0.00,40.00,0,-999,0,0.00
2013-7-14,88,78,66,-100,-100,-100,0,0,100,0.00,40.00,0,-999,0,0.00
2013-7-15,92,78,66,-100,-100,-100,0,0,100,0.00,40.00,0,-999,0,0.00
2013-7-16,91,80,66,-100,-100,-100,0,0,100,0.00,40.00,0,-999,0,0.00
2013-7-17,93,80,66,-100,-100,-100,0,0,100,0.00,40.00,0,-999,0,0.11
2013-7-18,91,78,71,-100,-100,-100,0,0,100,0.00,40.00,0,-999,0,0.76
2013-7-19,94,82,70,-100,-100,-100,0,0,100,0.00,40.00,0,-999,0,0.13
2013-7-20,88,79,69,-100,-100,-100,0,0,100,0.00,40.00,0,-999,0,0.16
2013-7-21,83,73,63,-100,-100,-100,0,0,100,0.00,40.00,0,-999,0,0.00
2013-7-22,75,68,63,-100,-100,-100,0,0,100,0.00,40.00,0,-999,0,0.44
2013-7-23,74,67,63,-100,-100,-100,0,0,100,0.00,40.00,0,-999,0,2.17
2013-7-24,80,71,64,-100,-100,-100,0,0,100,0.00,40.00,0,-999,0,6.10
2013-7-25,70,62,52,-100,-100,-100,0,0,100,0.00,40.00,0,-999,0,5.23
2013-7-26,74,67,61,-100,-100,-100,0,0,100,0.00,40.00,0,-999,0,0.07
2013-7-27,83,72,60,-100,-100,-100,0,0,100,0.00,40.00,0,-999,0,0.02
2013-7-28,79,66,59,-100,-100,-100,0,0,100,0.00,40.00,0,-999,0,0.04
2013-7-29,81,70,64,-100,-100,-100,0,0,100,0.00,40.00,0,-999,0,0.23
2013-7-30,79,69,57,-100,-100,-100,0,0,100,0.00,40.00,0,-999,0,0.07
2013-7-31,82,69,56,-100,-100,-100,0,0,100,0.00,40.00,0,-999,0,0.00
2013-8-1,81,67,58,-100,-100,-100,0,0,100,0.00,40.00,0,-999,0,0.22
2013-8-2,82,70,62,-100,-100,-100,0,0,100,0.00,40.00,0,-999,0,13.37
2013-8-3,80,68,58,-100,-100,-100,0,0,100,0.00,40.00,0,-999,0,0.02
2013-8-4,74,64,53,-100,-100,-100,0,0,100,0.00,40.00,0,-999,0,0.02
2013-8-5,73,62,53,-100,-100,-100,0,0,100,0.00,40.00,0,-999,0,0.01
2013-8-6,78,64,47,-100,-100,-100,0,0,100,0.00,40.00,0,-999,0,0.00
2013-8-7,77,66,51,-100,-100,-100,0,0,100,0.00,40.00,0,-999,0,0.00
2013-8-8,81,71,63,-100,-100,-100,0,0,100,0.00,40.00,0,-999,0,0.00
2013-8-9,74,72,68,-100,-100,-100,0,0,100,0.00,40.00,0,-999,0,0.50
2013-8-10,79,72,61,-100,-100,-100,0,0,100,0.00,40.00,0,-999,0,0.19
2013-8-11,78,65,53,-100,-100,-100,0,0,100,0.00,40.00,0,-999,0,0.05
2013-8-12,80,67,56,-100,-100,-100,0,0,100,0.00,40.00,0,-999,0,0.00
2013-8-13,70,64,57,-100,-100,-100,0,0,100,0.00,40.00,0,-999,0,0.76
2013-8-14,72,65,59,-100,-100,-100,0,0,100,0.00,40.00,0,-999,0,0.01
2013-8-15,75,62,52,-100,-100,-100,0,0,100,0.00,40.00,0,-999,0,0.00
2013-8-16,80,65,51,-100,-100,-100,0,0,100,0.00,40.00,0,-999,0,0.00
2013-8-17,79,66,52,-100,-100,-100,0,0,100,0.00,40.00,0,-999,0,0.00
2013-8-18,79,66,54,-100,-100,-100,0,0,100,0.00,40.00,0,-999,0,0.00
2013-8-19,83,69,55,-100,-100,-100,0,0,100,0.00,40.00,0,-999,0,1.36
2013-8-20,85,72,58,-100,-100,-100,0,0,100,0.00,40.00,0,-999,0,467.78
2013-8-21,87,73,59,-100,-100,-100,0,0,100,0.00,40.00,0,-999,0,265.79
2013-8-22,87,74,63,-100,-100,-100,0,0,100,0.00,40.00,0,-999,0,49.37
2013-8-23,79,71,62,-100,-100,-100,0,0,100,0.00,40.00,0,-999,0,0.00
2013-8-24,79,64,47,-100,-100,-100,0,0,100,0.00,40.00,0,-999,0,0.00
2013-8-25,80,66,49,-100,-100,-100,0,0,100,0.00,40.00,0,-999,0,0.00
2013-8-26,79,69,61,-100,-100,-100,0,0,100,0.00,40.00,0,-999,0,0.23
2013-8-27,85,73,65,-100,-100,-100,0,0,100,0.00,40.00,0,-999,0,0.01
2013-8-28,88,75,66,-100,-100,-100,0,0,100,0.00,40.00,0,-999,0,0.56
2013-8-29,68,65,63,-100,-100,-100,0,0,100,0.00,40.00,0,-999,0,0.69
2013-8-30,84,71,61,-100,-100,-100,0,0,100,0.00,40.00,0,-999,0,10.05
2013-8-31,79,73,67,-100,-100,-100,0,0,100,0.00,40.00,0,-999,0,0.04
2013-9-1,86,76,69,-100,-100,-100,0,0,100,0.00,40.00,0,-999,0,490.15
2013-9-2,73,71,69,-100,-100,-100,0,0,100,0.00,40.00,0,-999,0,0.00
2013-9-3,76,69,64,-100,-100,-100,0,0,100,0.00,40.00,0,-999,0,0.00
2013-9-4,79,69,56,-100,-100,-100,0,0,100,0.00,40.00,0,-999,0,0.00
2013-9-5,68,61,48,-100,-100,-100,0,0,100,0.00,40.00,0,-999,0,0.00
2013-9-6,69,55,40,-100,-100,-100,0,0,100,0.00,40.00,0,-999,0,0.00
2013-9-7,75,62,47,-100,-100,-100,0,0,100,0.00,40.00,0,-999,0,0.00
2013-9-8,67,61,48,-100,-100,-100,0,0,100,0.00,40.00,0,-999,0,0.00
2013-9-9,69,55,40,-100,-100,-100,0,0,100,0.00,40.00,0,-999,0,0.00
2013-9-10,69,60,50,-100,-100,-100,0,0,100,0.00,40.00,0,-999,0,0.00
2013-9-11,91,76,65,-100,-100,-100,0,0,100,0.00,40.00,0,-999,0,0.00
2013-9-12,76,69,66,-100,-100,-100,0,0,100,0.00,40.00,0,-999,0,0.00
2013-9-13,76,65,57,-100,-100,-100,0,0,100,0.00,40.00,0,-999,0,0.00
2013-9-14,65,58,49,-100,-100,-100,0,0,100,0.00,40.00,0,-999,0,0.00
2013-9-15,68,54,42,-100,-100,-100,0,0,100,0.00,40.00,0,-999,0,0.00
2013-9-16,63,56,45,-100,-100,-100,0,0,100,0.00,40.00,0,-999,0,0.00
2013-9-17,64,49,35,-100,-100,-100,0,0,100,0.00,40.00,0,-999,0,0.00
2013-9-18,51,43,40,-100,-100,-100,0,0,100,0.00,40.00,0,-999,0,0.00
2013-9-19,76,59,43,-100,-100,-100,0,0,100,0.00,40.00,0,-999,0,0.00
2013-9-20,76,61,48,-100,-100,-100,0,0,100,0.00,40.00,0,-999,0,0.00
2013-9-21,72,61,49,-100,-100,-100,0,0,100,0.00,40.00,0,-999,0,0.00
2013-9-22,69,63,51,-100,-100,-100,0,0,100,0.00,40.00,0,-999,0,0.00
2013-9-23,56,50,44,-100,-100,-100,0,0,100,0.00,40.00,0,-999,0,0.00
2013-9-24,61,52,45,-100,-100,-100,0,0,100,0.00,40.00,0,-999,0,0.00
2013-9-25,66,55,44,-100,-100,-100,0,0,100,0.00,40.00,0,-999,0,0.00
2013-9-26,67,58,43,-100,-100,-100,0,0,100,0.00,40.00,0,-999,0,0.00
2013-9-27,68,58,50,-100,-100,-100,0,0,100,0.00,40.00,0,-999,0,0.00
2013-9-28,73,57,46,-100,-100,-100,0,0,100,0.00,40.00,0,-999,0,0.00
2013-9-29,72,56,46,-100,-100,-100,0,0,100,0.00,40.00,0,-999,0,0.00
2013-9-30,71,54,42,-100,-100,-100,0,0,100,0.00,40.00,0,-999,0,0.00
2013-10-1,67,58,48,-100,-100,-100,0,0,100,0.00,40.00,0,-999,0,0.00
2013-10-2,79,63,48,-100,-100,-100,0,0,100,0.00,40.00,0,-999,0,0.00
2013-10-3,76,61,48,-100,-100,-100,0,0,100,0.00,40.00,0,-999,0,0.00
2013-10-4,67,57,46,-100,-100,-100,0,0,100,0.00,40.00,0,-999,0,0.00
2013-10-5,64,60,57,-100,-100,-100,0,0,100,0.00,40.00,0,-999,0,0.00
2013-10-6,59,53,50,-100,-100,-100,0,0,100,0.00,40.00,0,-999,0,0.00
2013-10-7,70,55,51,-100,-100,-100,0,0,100,0.00,40.00,0,-999,0,0.18
2013-10-8,62,53,43,-100,-100,-100,0,0,100,0.00,40.00,0,-999,0,0.17
2013-10-9,62,46,36,-100,-100,-100,0,0,100,0.00,40.00,0,-999,0,0.00
2013-10-10,63,49,39,-100,-100,-100,0,0,100,0.00,40.00,0,-999,0,0.00
2013-10-11,69,53,44,-100,-100,-100,0,0,100,0.00,40.00,0,-999,0,0.00
2013-10-12,56,51,42,-100,-100,-100,0,0,100,0.00,40.00,0,-999,0,0.00
2013-10-13,57,49,42,-100,-100,-100,0,0,100,0.00,40.00,0,-999,0,0.00
2013-10-14,65,53,40,-100,-100,-100,0,0,100,0.00,40.00,0,-999,0,0.00
2013-10-15,64,58,50,-100,-100,-100,0,0,100,0.00,40.00,0,-999,0,0.00
2013-10-16,61,56,50,-100,-100,-100,0,0,100,0.00,40.00,0,-999,0,0.00
2013-10-17,71,57,48,-100,-100,-100,0,0,100,0.00,40.00,0,-999,0,0.00
2013-10-18,63,56,49,-100,-100,-100,0,0,100,0.00,40.00,0,-999,0,0.00
2013-10-19,64,52,39,-100,-100,-100,0,0,100,0.00,40.00,0,-999,0,0.00
2013-10-20,59,52,43,-100,-100,-100,0,0,100,0.00,40.00,0,-999,0,0.00
2013-10-21,63,48,34,-100,-100,-100,0,0,100,0.00,40.00,0,-999,0,0.00
2013-10-22,56,49,39,-100,-100,-100,0,0,100,0.00,40.00,0,-999,0,0.00
2013-10-23,54,44,35,-100,-100,-100,0,0,100,0.00,40.00,0,-999,0,0.00
2013-10-24,49,43,35,-100,-100,-100,0,0,100,0.00,40.00,0,-999,0,0.00
2013-10-25,45,38,31,-100,-100,-100,0,0,100,0.00,40.00,0,-999,0,0.00
2013-10-26,49,40,28,-100,-100,-100,0,0,100,0.00,40.00,0,-999,0,0.00
2013-10-27,51,46,32,-100,-100,-100,0,0,100,0.00,40.00,0,-999,0,0.00
2013-10-28,55,40,29,-100,-100,-100,0,0,100,0.00,40.00,0,-999,0,0.00
2013-10-29,47,34,23,-100,-100,-100,0,0,100,0.00,40.00,0,-999,0,0.00
2013-10-30,49,36,27,-100,-100,-100,0,0,100,0.00,40.00,0,-999,0,0.00
2013-10-31,46,37,29,-100,-100,-100,0,0,100,0.00,40.00,0,-999,0,0.00
2013-11-1,65,60,54,-100,-100,-100,0,0,100,0.00,40.00,0,-999,0,0.11
2013-11-2,62,51,38,-100,-100,-100,0,0,100,0.00,40.00,0,-999,0,0.01
2013-11-3,45,37,30,-100,-100,-100,0,0,100,0.00,40.00,0,-999,0,0.00
2013-11-4,41,31,24,-100,-100,-100,0,0,100,0.00,40.00,0,-999,0,0.00
2013-11-5,46,33,22,-100,-100,-100,0,0,100,0.00,40.00,0,-999,0,0.00
2013-11-6,56,45,32,-100,-100,-100,0,0,100,0.00,40.00,0,-999,0,0.00
2013-11-7,56,50,41,-100,-100,-100,0,0,100,0.00,40.00,0,-999,0,0.00
2013-11-8,44,37,28,-100,-100,-100,0,0,100,0.00,40.00,0,-999,0,0.00
2013-11-9,41,38,34,-100,-100,-100,0,0,100,0.00,40.00,0,-999,0,0.00
2013-11-10,41,36,33,-100,-100,-100,0,0,100,0.00,40.00,0,-999,0,0.00
2013-11-11,48,41,37,-100,-100,-100,0,0,100,0.00,40.00,0,-999,0,0.00
2013-11-12,43,32,27,-100,-100,-100,0,0,100,0.00,40.00,0,-999,0,0.00
2013-11-13,32,27,21,-100,-100,-100,0,0,100,0.00,40.00,0,-999,0,0.00
2013-11-14,47,34,27,-100,-100,-100,0,0,100,0.00,40.00,0,-999,0,0.00
2013-11-15,51,35,27,-100,-100,-100,0,0,100,0.00,40.00,0,-999,0,0.00
2013-11-16,57,37,29,-100,-100,-100,0,0,100,0.00,40.00,0,-999,0,0.00
2013-11-17,45,36,27,-100,-100,-100,0,0,100,0.00,40.00,0,-999,0,0.00
2013-11-18,61,53,44,-100,-100,-100,0,0,100,0.00,40.00,0,-999,0,0.00
2013-11-19,45,36,30,-100,-100,-100,0,0,100,0.00,40.00,0,-999,0,0.00
2013-11-20,38,30,22,-100,-100,-100,0,0,100,0.00,40.00,0,-999,0,0.00
2013-11-21,44,30,18,-100,-100,-100,0,0,100,0.00,40.00,0,-999,0,0.00
2013-11-22,38,35,29,-100,-100,-100,0,0,100,0.00,40.00,0,-999,0,0.00
2013-11-23,41,35,26,-100,-100,-100,0,0,100,0.00,40.00,0,-999,0,0.00
2013-11-24,25,20,16,-100,-100,-100,0,0,100,0.00,40.00,0,-999,0,0.00
2013-11-25,28,20,14,-100,-100,-100,0,0,100,0.00,40.00,0,-999,0,0.00
2013-11-26,34,30,26,-100,-100,-100,0,0,100,0.00,40.00,0,-999,0,0.00
2013-11-27,44,34,32,-100,-100,-100,0,0,100,0.00,40.00,0,-999,0,0.00
2013-11-28,35,27,18,-100,-100,-100,0,0,100,0.00,40.00,0,-999,0,0.00
2013-11-29,27,21,13,-100,-100,-100,0,0,100,0.00,40.00,0,-999,0,0.00
2013-11-30,29,20,6,-100,-100,-100,0,0,100,0.00,40.00,0,-999,0,0.00
2013-12-1,36,32,28,-100,-100,-100,0,0,100,0.00,40.00,0,-999,0,0.00
2013-12-2,40,36,33,-100,-100,-100,0,0,100,0.00,40.00,0,-999,0,0.00
2013-12-3,46,35,29,-100,-100,-100,0,0,100,0.00,40.00,0,-999,0,0.00
2013-12-4,40,33,27,-100,-100,-100,0,0,100,0.00,40.00,0,-999,0,0.00
2013-12-5,37,34,25,-100,-100,-100,0,0,100,0.00,40.00,0,-999,0,0.00
2013-12-6,44,39,36,-100,-100,-100,0,0,100,0.00,40.00,0,-999,0,0.00
2013-12-7,34,31,22,-100,-100,-100,0,0,100,0.00,40.00,0,-999,0,0.00
2013-12-8,28,24,18,-100,-100,-100,0,0,100,0.00,40.00,0,-999,0,0.00
2013-12-9,28,26,24,-100,-100,-100,0,0,100,0.00,40.00,0,-999,0,0.00
2013-12-10,33,28,22,-100,-100,-100,0,0,100,0.00,40.00,0,-999,0,0.00
2013-12-11,29,23,17,-100,-100,-100,0,0,100,0.00,40.00,0,-999,0,0.00
2013-12-12,20,16,9,-100,-100,-100,0,0,100,0.00,40.00,0,-999,0,0.00
2013-12-13,23,18,9,-100,-100,-100,0,0,100,0.00,40.00,0,-999,0,0.00
2013-12-14,13,8,2,-100,-100,-100,0,0,100,0.00,40.00,0,-999,0,0.00
2013-12-15,27,20,12,-100,-100,-100,0,0,100,0.00,40.00,0,-999,0,0.00
2013-12-16,24,17,7,-100,-100,-100,0,0,100,0.00,40.00,0,-999,0,0.00
2013-12-17,14,7,-9,-100,-100,-100,0,0,100,0.00,40.00,0,-999,0,0.00
2013-12-18,31,21,13,-100,-100,-100,0,0,100,0.00,40.00,0,-999,0,0.00
2013-12-19,37,30,15,-100,-100,-100,0,0,100,0.00,40.00,0,-999,0,0.00
2013-12-20,37,32,29,-100,-100,-100,0,0,100,0.00,40.00,0,-999,0,0.00
2013-12-21,36,35,34,-100,-100,-100,0,0,100,0.00,40.00,0,-999,0,0.00
2013-12-22,38,33,31,-100,-100,-100,0,0,100,0.00,40.00,0,-999,0,0.00
2013-12-23,33,32,30,-100,-100,-100,0,0,100,0.00,40.00,0,-999,0,0.00
2013-12-24,33,29,23,-100,-100,-100,0,0,100,0.00,40.00,0,-999,0,0.00
2013-12-25,21,13,5,-100,-100,-100,0,0,100,0.00,40.00,0,-999,0,0.00
2013-12-26,23,17,11,-100,-100,-100,0,0,100,0.00,40.00,0,-999,0,0.00
2013-12-27,31,19,7,-100,-100,-100,0,0,100,0.00,40.00,0,-999,0,0.00
2013-12-28,37,26,12,-100,-100,-100,0,0,100,0.00,40.00,0,-999,0,0.00
2013-12-29,34,28,22,-100,-100,-100,0,0,100,0.00,40.00,0,-999,0,0.00
2013-12-30,35,32,31,-100,-100,-100,0,0,100,0.00,40.00,0,-999,0,0.00
2013-12-31,16,11,1,-100,-100,-100,0,0,100,0.00,40.00,0,-999,0,0.00
2014-1-1,21,18,8,-100,-100,-100,0,0,100,0.00,40.00,0,-999,0,0.00
2014-1-2,11,6,-1,-100,-100,-100,0,0,100,0.00,40.00,0,-999,0,0.00